Other Public Products
Issued by NWS Grand Forks, ND

Home | Current Version | Previous Version | Text Only | Print | Product List | Glossary Off
Versions: 1 2 3 4 5 6 7 8 9 10 11 12 13 14 15 16 17 18 19 20 21 22 23 24 25 26 27 28 29 30 31 32 33 34 35 36 37 38 39 40 41 42 43 44 45 46 47 48 49 50

000
FPUS83 KFGF 272010
OPUFGF
PRAIRIE TO PINES WEATHER ROUNDUP
NATIONAL WEATHER SERVICE EASTERN NORTH DAKOTA/GRAND FORKS ND
300 PM CDT SAT AUG 27 2016

 **SATELLITE DATA USED TO AUGMENT SKY COVER AT AUTOMATED STATIONS**
 *****  WEATHER ACROSS EASTERN NORTH DAKOTA  *****

CITY           SKY/WX    TMP DP  RH WIND       PRES   REMARKS
GRAND FORKS    MOSUNNY   69  61  75 S13       29.89F
GRAND FORKS AF MOSUNNY   72  63  73 S13       29.89F THUNDER
GRAND CITY NWS   N/A     68 N/A N/A S12         N/A
BUXTON           N/A     67  65  95 E12         N/A
DEVILS LAKE    NOT AVBL
FARGO          CLOUDY    72  61  68 S13       29.92F
WAHPETON ARPT  CLOUDY    73  55  53 S14G20    29.94S
$$

 *****  WEATHER ACROSS CENTRAL AND WESTERN NORTH DAKOTA  *****

CITY           SKY/WX    TMP DP  RH WIND       PRES   REMARKS
JAMESTOWN      MOSUNNY   76  59  55 S10       29.89F
BISMARCK       SUNNY     78  49  35 SW10G17   29.91F
MINOT          MOSUNNY   74  47  38 E6        29.87F
MINOT AFB      MOSUNNY   76  44  31 W12       29.86F
GARRISON         N/A     76  50  40 S8        29.89F
WILLISTON      SUNNY     78  42  27 S9G17     29.85F
DICKINSON      SUNNY     76  38  25 VRB5      29.88F
HETTINGER      SUNNY     79  46  31 S14       29.92F
$$

 *****  OTHER OBSERVATIONS NORTHEAST NORTH DAKOTA  *****

CITY           SKY/WX    TMP DP  RH WIND       PRES   REMARKS
WALHALLA       NOT AVBL
LANGDON        FAIR      75  52  43 SW13G18   29.89S
CAVALIER       LGT RAIN  64  61  88 S12       29.88S
GRAFTON        FAIR      72  61  68 SE16G22   29.90F
CANDO          NOT AVBL
FORT TOTTEN      N/A     73  52  47 W5        29.95S
ROLLA            N/A     68  48  49 W13       29.90F
RUGBY          FAIR      75  50  41 SW6       29.88F
 ***** THE ABOVE OBSERVATIONS ARE NON NWS ARE NOT QUALITY
        CONTROLLED AND MAY MIS-REPORT RAIN FOR SNOW...
$$

 *****  OTHER OBSERVATIONS SOUTHEAST NORTH DAKOTA *****

CITY           SKY/WX    TMP DP  RH WIND       PRES   REMARKS
COOPERSTOWN    NOT AVBL
VALLEY CITY    FAIR      73  64  73 SW12G17   29.93S
OAKES            N/A    N/A N/A N/A MISG        N/A
GWINNER        FAIR      75  63  64 SW14G20   29.94S
SHEYENNE NWR     N/A     75  62  64 SW10      29.95S
BUFFALO          N/A     74  58  58 S8          N/A
WYNDMERE       NOT AVBL
 ***** THE ABOVE OBSERVATIONS ARE NON NWS ARE NOT QUALITY
       CONTROLLED AND MAY MIS-REPORT RAIN FOR SNOW...
$$

  *****  WEATHER ACROSS NORTHERN MINNESOTA  *****

CITY           SKY/WX    TMP DP  RH WIND       PRES   REMARKS
FLAG ISLAND    DRIZZLE   61  57  88 SE5       29.95S
WARROAD        CLOUDY    61  55  82 S3        29.96F
ROSEAU         CLOUDY    59  54  82 S7        29.94F
HALLOCK        CLOUDY    70  61  73 S13G20    29.91S
THF RVR FALLS  CLOUDY    58  56  93 S9        29.95S
HALSTAD          N/A     64  59  85 E13         N/A
FOSSTON        TSTM      55  54  94 SE10      29.96F
BAUDETTE       LGT RAIN  58  56  93 S6        29.97F
WASKISH        RAIN      59  57  94 CALM      30.01F
CROOKSTON      CLOUDY    61  61 100 S10       29.93F
$$
  *****  WEATHER ACROSS CENTRAL AND WEST MINNESOTA  *****

CITY           SKY/WX    TMP DP  RH WIND       PRES   REMARKS
BEMIDJI        RAIN      62  57  85 NW16      30.00S
PARK RAPIDS    CLOUDY    71  53  52 S13       29.98F
WADENA         PTSUNNY   70  55  60 S9G17     29.98F
DETROIT LAKES  CLOUDY    66  55  68 S6        29.98R
MOORHEAD       CLOUDY    68  61  77 S14       29.94F
FERGUS FALLS   PTSUNNY   72  59  64 S12       29.98R THUNDER
ELBOW LAKE     FAIR      70  59  69 S14       29.98S
MORRIS MN      PTSUNNY   70  59  68 SE9       29.97S
STAPLES        CLOUDY    66  55  68 S8        29.99S
WHEATON        MOSUNNY   73  63  68 SE10      29.97F
$$
  *****  WEATHER ELSEWHERE ACROSS MINNESOTA  *****

CITY           SKY/WX    TMP DP  RH WIND       PRES   REMARKS
DULUTH         CLOUDY    64  58  80 SE9       30.04F
INTRNTL FALLS  RAIN      61  58  90 S3        30.01S FOG
ELY            CLOUDY    64  52  63 S7        30.05S
CLOQUET        CLOUDY    64  57  77 E6        30.03F
BRAINERD       CLOUDY    67  57  70 SE8       30.00S
HIBBING        CLOUDY    67  54  63 SE8       30.01F
ALEXANDRIA     CLOUDY    68  57  68 S10       30.00S
SAINT CLOUD    CLOUDY    63  60  90 SE6       30.00F
MINNEAPOLIS    CLOUDY    66  61  84 SE10      30.00F
$$

  *****  WEATHER ACROSS SOUTH DAKOTA  *****

CITY           SKY/WX    TMP DP  RH WIND       PRES   REMARKS
SIOUX FALLS    MOSUNNY   73  62  68 S3        29.99F
BROOKINGS      PTSUNNY   70  60  70 S7        29.99S
WATERTOWN      SUNNY     74  60  61 S13       29.97F
HURON          MOSUNNY   77  62  59 S9        29.94F
SISSETON       NOT AVBL
ABERDEEN       MOSUNNY   77  61  57 S13       29.93F
MITCHELL       SUNNY     80  61  52 SW9       29.95F
PIERRE         SUNNY     79  53  40 VRB3      29.91F
MOBRIDGE       SUNNY     81  54  39 SE9       29.89F
RAPID CITY     SUNNY     79  55  43 SE13      29.93F
$$

  *****  SOME WEATHER IN NEARBY STATES *****

CITY           SKY/WX    TMP DP  RH WIND       PRES   REMARKS
GLASGOW MT     SUNNY     79  44  28 S12G23    29.76F
GREAT FALLS MT CLOUDY    82  35  18 SW21G30   29.77F
CHEYENNE WY    SUNNY     77  29  17 SW10G20   30.12F
SCOTTSBLUFF NE SUNNY     83  43  24 VRB5      30.01F
OMAHA NE       MOSUNNY   82  64  54 VRB7      30.00F
DES MOINES IA  MOSUNNY   80  69  69 CALM      30.00F
DAVENPORT IA   MOSUNNY   81  70  69 SW10      30.01F
CHICAGO IL     PTSUNNY   82  71  69 SW8       30.02S
EAU CLAIRE WI  LGT RAIN  66  60  81 SE6       30.01F
LA CROSSE WI   CLOUDY    71  65  81 SE7       30.01S
$$

  *****  SOME NATIONAL WEATHER *****

CITY           SKY/WX    TMP DP  RH WIND       PRES   REMARKS
LA GUARDIA NY  PTSUNNY   88  56  33 SE13      30.16F
RALEIGH NC     CLOUDY    82  77  84 S5        30.09S HX  90
ATLANTA GA     MOSUNNY   91  68  46 E8        30.08F HX  95
NEW ORLEANS LA LGT RAIN  83  78  85 VRB3      29.94F HX  93
OKLAHOMA CITY  PTSUNNY   87  70  56 W7        30.00F HX  92
ALBUQUERQUE NM MOSUNNY   81  44  27 VRB5      30.13F
SALT LAKE CITY MOSUNNY   86  34  15 SW8       30.03F
LOS ANGELES CA MOSUNNY   74  56  53 W12       29.99F
BOISE ID       MOSUNNY   85  32  15 N6        29.93F
SEATTLE WA     CLOUDY    66  55  67 SW17      29.90R
$$

*** WEATHER ACROSS MANITOBA...SASKATCHEWAN AND ONTARIO ***
                ***ONTARIO***

CITY           SKY/WX    TMP DP  RH WIND       PRES   REMARKS
GERALDTON      PTSUNNY   72  50  46 S7        30.07F
THUNDER BAY    PTSUNNY   66  54  63 S8        30.07S
SIOUX LOOKOUT  PTSUNNY   68  59  73 VRB2      29.98F
TORONTO        PTSUNNY   79  57  47 SE8       30.16F
BIG TROUT LK   MOSUNNY   73  55  53 S5        29.92F
PICKLE LAKE    PTSUNNY   73  50  43 SW9       29.98F
DRYDEN         LGT RAIN  63  59  88 SW7       29.99S
KENORA         LGT RAIN  59  57  94 S8        29.98S
$$
                *** MANITOBA***

CITY           SKY/WX    TMP DP  RH WIND       PRES   REMARKS
BRANDON        MOSUNNY   72  54  53 W9        29.86F
DAUPHIN        PTSUNNY   68  57  68 NW8       29.84R
ISLAND LAKE    MOSUNNY   70  59  68 SE9       29.85S THUNDER
PILOT MOUND      N/A     73  52  46 SW6         N/A
THE PAS        PTSUNNY   61  55  82 N3        29.82S
THOMPSON       PTSUNNY   66  55  68 E5        29.83S
WINNIPEG       PTSUNNY   72  59  64 S10G20    29.87F
LYNN LAKE      SUNNY     68  41  37 MISG      29.80S
CHURCHILL      PTSUNNY   66  48  52 S13G21    29.85S
GILLAM         PTSUNNY   66  55  68 NE7       29.86S
$$
                ***SASKATCHEWAN***

CITY           SKY/WX    TMP DP  RH WIND       PRES   REMARKS
ESTEVAN        MOSUNNY   75  43  31 S6        29.84F
KINDERSLEY     PTSUNNY   77  52  41 S15       29.60F
LLOYDMINSTER   PTSUNNY   70  50  49 S17       29.58S
PRINCE ALBERT  PTSUNNY   70  52  52 SE9G17    29.73F
REGINA         PTSUNNY   77  46  33 S8G20     29.78F
YORKTON        MOSUNNY   70  50  49 VRB5      29.83S   C1F1C2F2C3F3C4F4C5F5C6F6C7F7C8F8C9F9CaFaCbFbCcFcCdFdCe!



USA.gov is the U.S. government's official web portal to all federal, state and local government web resources and services.